Location: *
(50.8512°N, 5.6907°E)
Time: 11:14:23
(UTC+00:00)

Meteor 2-10 Rocket - Pass Details

Date: 09 April 2020
Orbit: 734 x 884 km, 81.2° (Epoch: 23 May)

Event Time Altitude Azimuth Distance (km) Brightness Sun altitude
Exits shadow 20:33:52 36° 130° (SE) 1,237 4.0 -19.0°
Maximum altitude 20:35:14 43° 93° (E) 1,107 3.9 -19.1°
Drops below altitude 10° 20:40:23 10° 23° (NNE) 2,430 6.3 -19.7°
Sets 20:42:56 0° 17° (NNE) 3,392 7.2 -20.0°
